TimeEST,TemperatureF,Dew PointF,Humidity,Sea Level PressureIn,VisibilityMPH,Wind Direction,Wind SpeedMPH,Gust SpeedMPH,PrecipitationIn,Events,Conditions,WindDirDegrees,DateUTC
12:53 AM,42.1,39.0,89,30.32,10.0,Calm,Calm,-,0.02,Rain,Light Rain,0,2012-11-13 05:53:00
1:16 AM,42.8,37.4,81,30.36,10.0,Calm,Calm,-,0.00,,Overcast,0,2012-11-13 06:16:00
1:53 AM,42.1,37.0,82,30.32,10.0,Calm,Calm,-,0.00,,Overcast,0,2012-11-13 06:53:00
2:53 AM,41.0,36.0,82,30.33,10.0,NNE,4.6,-,N/A,,Overcast,20,2012-11-13 07:53:00
3:53 AM,37.0,30.9,79,30.33,10.0,North,6.9,-,N/A,,Scattered Clouds,350,2012-11-13 08:53:00
4:53 AM,35.1,28.9,78,30.35,10.0,NNW,5.8,-,N/A,,Clear,340,2012-11-13 09:53:00
5:53 AM,34.0,28.0,79,30.38,10.0,NNW,3.5,-,N/A,,Clear,340,2012-11-13 10:53:00
6:53 AM,33.1,28.0,82,30.40,10.0,Calm,Calm,-,N/A,,Partly Cloudy,0,2012-11-13 11:53:00
7:53 AM,33.1,30.0,89,30.42,10.0,Calm,Calm,-,N/A,,Mostly Cloudy,0,2012-11-13 12:53:00
8:53 AM,36.0,28.9,76,30.43,10.0,Calm,Calm,-,N/A,,Scattered Clouds,0,2012-11-13 13:53:00
9:53 AM,39.0,26.1,60,30.43,10.0,NNE,3.5,-,N/A,,Partly Cloudy,20,2012-11-13 14:53:00
10:53 AM,41.0,25.0,53,30.43,10.0,Calm,Calm,-,N/A,,Partly Cloudy,0,2012-11-13 15:53:00
11:53 AM,44.1,24.1,45,30.41,10.0,Calm,Calm,-,N/A,,Partly Cloudy,0,2012-11-13 16:53:00
12:53 PM,46.0,27.0,47,30.38,10.0,Variable,3.5,-,N/A,,Partly Cloudy,0,2012-11-13 17:53:00
1:53 PM,46.0,26.1,46,30.36,10.0,Calm,Calm,-,N/A,,Clear,0,2012-11-13 18:53:00
2:53 PM,48.0,26.1,42,30.35,10.0,Variable,3.5,-,N/A,,Clear,0,2012-11-13 19:53:00
3:53 PM,48.0,24.1,39,30.35,10.0,North,3.5,-,N/A,,Clear,10,2012-11-13 20:53:00
4:53 PM,46.0,26.1,46,30.36,10.0,NNE,3.5,-,N/A,,Clear,20,2012-11-13 21:53:00
5:53 PM,42.1,26.1,53,30.37,10.0,Calm,Calm,-,N/A,,Clear,0,2012-11-13 22:53:00
6:53 PM,37.9,26.1,62,30.39,10.0,Calm,Calm,-,N/A,,Clear,0,2012-11-13 23:53:00
7:53 PM,37.0,25.0,62,30.41,10.0,Calm,Calm,-,N/A,,Clear,0,2012-11-14 00:53:00
8:53 PM,34.0,26.1,73,30.43,10.0,Calm,Calm,-,N/A,,Clear,0,2012-11-14 01:53:00
9:53 PM,32.0,24.1,73,30.43,10.0,Calm,Calm,-,N/A,,Clear,0,2012-11-14 02:53:00
10:53 PM,30.9,25.0,79,30.42,10.0,Calm,Calm,-,N/A,,Clear,0,2012-11-14 03:53:00
11:53 PM,30.9,24.1,76,30.40,10.0,Calm,Calm,-,N/A,,Clear,0,2012-11-14 04:53:00